#timestamp,LO_Frequency,Hit 
1502488815.0,286046998.4,N
1502488815.9,286046998.4,N
1502488835.8,286046998.7,N
1502488855.6,286046997.0,N
1502488875.4,286046999.2,N
1502488895.2,286046997.0,N
1502488915.1,286046997.9,N
1502488916.0,286046997.9,N
1502488935.8,286046995.5,N
1502488955.6,286046996.2,N
1502488975.5,286046995.9,N
1502488995.3,286046993.8,N
1502489015.1,286046996.4,N
1502489035.9,286046995.5,N
1502489055.7,286046995.7,N
1502489075.5,286046997.5,N
1502489095.4,286046995.3,N
1502489115.2,286046995.8,N
1502489135.0,286046996.0,N
1502489135.9,286046996.0,N
1502489155.8,286046994.6,N
1502489175.6,286046993.5,N
1502489195.4,286046993.5,N
1502489215.3,286046993.5,P
1502489235.1,286046992.0,P
1502489236.0,286046992.0,P
1502489255.8,286046993.8,P
1502489275.7,286047003.6,P
1502489295.5,286047005.7,N
1502489315.3,286047005.3,N
1502489335.2,286047009.0,N
1502489355.9,286047008.7,N
1502489375.7,286047004.9,N
1502489395.6,286047006.9,N
1502489415.4,286047004.8,N
1502489435.2,286047005.8,N
1502489455.0,286047005.2,N
1502489455.9,286047005.2,N
1502489475.8,286047004.6,N
1502489495.6,286047007.3,N
1502489515.4,286047006.1,N
1502489535.3,286047007.4,N
1502489555.1,286047003.3,N
1502489575.8,286047002.3,N
1502489595.7,286047004.2,N
1502489615.5,286047001.3,N
1502489635.3,286047004.4,N
1502489655.2,286047002.1,N
1502489675.9,286047003.4,N
1502489695.7,286047002.1,N
1502489715.6,286047002.2,N
1502489735.4,286046999.7,N
1502489755.2,286047002.0,N
1502489775.0,286047000.2,N
1502489776.0,286047000.2,N
1502489795.8,286047001.8,N
1502489815.6,286047002.4,N
1502489835.4,286047000.2,N
1502489855.3,286046998.4,N
1502489875.1,286046999.1,N
1502489895.8,286046998.7,N
1502489915.7,286046999.2,N
1502489935.5,286047001.1,N
1502489955.3,286046998.8,N
1502489975.2,286047002.4,N
1502489995.9,286047002.4,N
1502490015.7,286047003.9,N
1502490035.6,286046999.9,N
1502490055.4,286047000.0,N
1502490075.2,286046998.5,N
1502490095.0,286046996.5,N
1502490096.0,286046996.5,N
1502490115.8,286046996.6,N
1502490135.6,286046995.0,N
1502490155.4,286046995.8,N
1502490175.3,286046994.1,N
1502490195.1,286046994.2,N
1502490215.8,286046995.4,N
1502490235.7,286046995.3,N
1502490255.5,286046996.6,N
1502490275.3,286046999.1,N
1502490295.2,286046999.1,N
1502490315.9,286046997.8,N
1502490335.7,286046997.4,N
1502490355.6,286046997.8,N
1502490375.4,286046995.5,N
1502490395.2,286046994.8,N
1502490415.1,286046996.3,N
1502490416.0,286046996.3,N
1502490435.8,286046996.0,N
1502490455.6,286046993.5,N
1502490475.5,286046995.5,N
1502490495.3,286046996.2,N
1502490515.1,286046995.3,N
1502490535.8,286046995.6,N
1502490555.7,286046994.5,N
1502490575.5,286046992.1,P
1502490595.4,286046995.5,N
1502490615.2,286046993.5,P
1502490635.0,286046994.7,P
1502490635.9,286046994.7,P
1502490655.8,286046999.1,P
1502490675.6,286046997.7,N
1502490695.4,286046998.9,N
1502490715.3,286047001.0,N
1502490735.1,286047002.5,N
1502490736.0,286047002.5,N
1502490755.8,286047004.0,N
1502490775.6,286047000.1,N
1502490795.5,286046999.6,N
1502490815.3,286046999.5,N
1502490835.1,286046995.9,N
1502490855.9,286046997.9,N
1502490875.7,286046995.2,N
1502490895.5,286046995.7,N
1502490915.4,286046997.7,N
1502490935.2,286046998.3,N
1502490955.0,286046998.3,N
1502490955.9,286046998.3,N
1502490975.8,286046996.5,N
1502490995.6,286046996.0,N
1502491015.4,286046994.7,N
1502491035.3,286046994.4,N
1502491055.1,286046993.9,N
1502491056.0,286046993.9,N
1502491075.8,286046994.1,N
1502491095.7,286046994.5,N
1502491115.5,286046992.3,N
1502491135.3,286046990.3,P
1502491155.2,286046993.2,N
1502491175.9,286046991.5,P
1502491195.7,286046989.1,P
1502491215.6,286046999.6,N
1502491235.4,286047004.0,N
1502491255.2,286047002.0,N
1502491275.1,286047002.8,N
1502491276.0,286047002.8,N
1502491295.8,286046999.8,N
1502491315.6,286047001.7,N
1502491335.5,286047001.7,N
1502491355.3,286046999.7,N
1502491375.1,286046997.4,N
1502491395.8,286046993.6,N
1502491415.7,286046993.9,N
1502491435.5,286046996.3,N
1502491455.3,286046994.6,N
1502491475.2,286046994.8,N
1502491495.9,286046992.1,N
1502491515.7,286046992.1,N
1502491535.6,286046991.7,N
1502491555.4,286046993.0,N
1502491575.2,286046990.1,N
1502491595.0,286046991.5,N
1502491596.0,286046991.5,N
1502491615.8,286046988.7,N
1502491635.6,286046988.9,N
1502491655.4,286046989.2,N
1502491675.3,286046990.9,N
1502491695.1,286046989.4,N
1502491715.8,286046987.7,N
1502491735.7,286046986.1,N
1502491755.5,286046989.6,N
1502491775.3,286046987.4,N
1502491795.2,286046982.1,P
1502491815.0,286046987.2,N
1502491815.9,286046987.2,N
1502491835.7,286046989.7,N
1502491855.6,286046987.8,P
1502491875.4,286046999.3,P
1502491895.2,286046998.2,N
1502491915.1,286046995.7,N
1502491916.0,286046995.7,N
1502491935.8,286046995.3,N
1502491955.6,286046995.6,N
1502491975.5,286046996.6,N
1502491995.3,286047001.2,N
1502492015.1,286046999.8,N
1502492035.9,286047001.0,N
1502492055.7,286046999.7,N
1502492075.5,286047000.1,N
1502492095.4,286047001.5,N
1502492115.2,286047003.2,N
1502492135.0,286047002.6,N
1502492135.9,286047002.6,N
1502492155.8,286047003.0,N
1502492175.6,286047004.4,N
1502492195.4,286047003.5,N
1502492215.2,286047003.8,N
1502492235.1,286047004.2,N
1502492236.0,286047004.2,N
1502492255.8,286047005.8,N
1502492275.6,286047003.3,N
1502492295.5,286047003.4,N
1502492315.3,286047005.3,N
1502492335.1,286047003.4,N
1502492355.9,286047001.6,N
1502492375.7,286047004.1,N
1502492395.5,286047001.4,N
